Vorticity
17 18 11 13 18 21 0 12 8 11 17 16 9 5 9 8 9 9 10 12 11 7 22 6 6 8 8 9 7 11 26 13 11 13 10 9 5 9 16 8 6 23 7 14 8 10 1 48 -2 8 22 7 5 8
16 12 3 12 7 17 16 7 12 4 10 15 11 9 10 9 8 9 11 12 12 12 15 12 10 6 10 5 9 11 16 14 11 15 12 14 12 8 6 10 19 -5 14 31 26 24 8 10 15 12 8 5 4 7
11 14 0 24 8 10 -8 10 10 23 15 6 5 11 3 8 9 8 13 12 12 12 9 13 12 12 8 8 9 12 10 5 4 11 12 10 5 14 14 7 18 -1 15 19 -3 11 9 8 6 7 7 8 10 10
6 17 4 2 9 14 16 13 7 6 18 16 6 4 7 9 10 9 10 12 9 13 10 9 13 12 11 6 9 9 6 8 9 10 14 11 5 15 6 6 8 14 14 12 6 8 8 9 9 10 10 10 7 4
3 23 30 12 13 1 5 5 -0 -0 4 5 7 13 10 10 10 9 9 10 8 -7 26 10 9 11 8 6 10 4 6 5 8 15 8 9 9 7 1 17 12 12 14 11 14 21 14 6 4 4 8 8 7 4
10 9 3 29 -1 8 22 16 14 14 18 13 12 10 10 11 10 9 7 9 10 3 18 -4 6 7 11 11 4 4 9 9 10 11 13 15 12 9 7 18 8 8 8 8 10 9 8 8 8 5 6 6 6 5
4 2 6 9 10 7 18 3 11 15 14 12 11 10 10 10 9 8 11 11 12 9 2 18 2 8 9 1 5 4 14 21 13 13 12 16 9 7 7 8 3 3 7 6 7 9 7 5 3 5 6 6 6 7
14 2 7 6 12 10 5 20 18 15 12 11 10 9 10 10 11 5 12 14 15 14 1 10 21 8 9 7 13 12 15 19 19 9 11 13 14 3 9 10 13 17 18 13 10 6 2 3 7 10 10 11 14 15
12 10 4 4 -1 6 10 13 14 14 16 12 10 9 11 11 11 8 12 10 16 5 2 22 6 8 14 13 8 7 9 10 15 11 18 14 14 12 10 7 17 4 6 3 2 5 7 11 13 10 7 6 7 8
17 10 9 -2 4 5 5 7 15 14 13 12 10 10 10 11 11 11 12 9 15 2 10 19 6 8 8 13 10 16 13 12 10 10 17 7 17 3 7 6 5 2 9 10 11 14 13 11 8 6 8 8 11 18
-3 6 5 9 11 8 5 13 13 13 14 10 10 0 21 7 8 -4 12 -0 13 14 11 14 -1 7 7 8 6 6 11 10 10 17 2 10 18 21 9 11 9 10 10 11 11 13 11 8 9 9 15 19 9 6
7 2 10 12 7 8 12 15 11 15 15 9 2 20 15 -10 11 12 10 12 19 8 22 13 11 7 6 9 4 13 9 11 9 22 4 13 24 15 13 9 10 12 11 14 11 7 8 14 18 12 7 7 7 8
12 15 11 8 7 8 16 18 11 15 13 19 18 -23 11 7 12 10 18 18 12 19 15 21 -3 17 19 2 11 14 12 11 13 5 10 21 10 9 13 16 15 14 8 5 9 17 16 10 7 8 8 8 8 8
9 12 9 10 9 11 11 17 16 13 7 -11 -8 7 4 18 22 19 8 15 3 16 18 14 25 17 10 11 7 10 13 10 9 8 17 15 12 10 10 10 9 6 8 17 17 8 7 7 7 7 7 9 10 12
9 11 14 12 10 10 10 21 22 11 -23 -6 10 8 8 19 13 3 24 2 7 6 8 8 14 4 11 -3 14 11 12 13 11 18 12 3 9 7 12 13 10 8 19 9 7 6 6 7 10 11 11 10 11 10
11 9 5 5 6 8 23 20 19 7 -23 -4 15 18 16 4 8 16 13 20 13 6 12 6 19 16 11 5 18 8 8 16 18 14 7 7 9 12 13 9 15 16 8 6 6 7 9 9 8 7 8 8 8 8
2 6 2 7 9 17 19 9 14 6 -9 1 16 5 17 6 7 16 13 11 13 5 9 -6 13 9 15 13 9 12 12 23 3 5 11 6 12 12 13 21 11 8 6 6 7 8 8 7 6 6 7 8 9 8
7 3 5 8 6 13 14 3 -5 12 7 3 3 9 21 20 5 13 14 9 9 10 7 0 3 14 2 11 19 15 12 2 8 12 5 8 10 18 18 9 8 7 7 8 7 7 7 6 6 7 8 8 9 9
-1 4 7 10 10 16 15 15 -11 13 36 -7 -8 9 6 18 18 10 12 9 9 9 2 4 4 15 17 16 10 9 11 9 5 6 11 13 13 20 9 8 7 7 7 7 7 7 7 5 7 7 7 8 8 8
16 11 11 7 5 6 -4 22 19 -9 51 3 -8 -13 18 8 17 18 7 13 16 7 3 3 7 -6 18 16 12 14 12 13 14 10 10 17 21 13 8 7 7 8 8 7 6 6 5 6 7 6 7 8 9 11
9 10 10 9 5 4 8 36 12 21 19 24 -7 -6 12 12 18 24 14 8 9 8 7 9 7 8 13 7 3 8 7 6 4 7 14 17 16 10 7 7 8 8 6 6 6 6 6 7 6 7 9 9 11 13
9 7 7 10 12 -2 -4 24 -1 12 15 29 23 2 -8 18 13 11 14 12 8 4 8 16 13 11 16 14 10 10 10 9 4 11 14 14 15 10 7 8 8 7 7 5 6 6 6 6 8 9 9 10 12 12
12 6 8 12 -10 -10 27 30 -4 14 17 15 10 8 30 13 0 11 5 4 1 -1 15 15 20 14 6 4 7 9 12 11 13 9 12 11 14 12 9 8 9 7 6 5 6 5 6 7 8 10 11 12 13 13
2 8 10 -13 4 24 29 17 -4 10 17 1 31 18 30 5 -2 8 9 4 14 21 26 15 13 5 4 6 11 10 14 13 7 9 13 11 12 10 10 9 8 6 6 7 6 6 7 9 10 11 12 13 13 13
5 21 -15 6 18 17 31 18 3 -6 11 4 -15 -6 5 7 7 6 12 13 -7 18 25 21 8 3 6 9 16 10 15 13 6 12 11 10 13 13 10 8 7 7 7 7 5 7 9 10 10 11 13 13 11 14
-2 11 2 16 20 9 8 32 8 1 -4 0 5 3 -0 3 8 -5 4 9 15 2 20 15 15 14 11 7 7 10 12 8 5 9 9 9 10 11 11 9 8 7 7 6 7 10 9 9 12 13 12 12 14 12
-21 6 27 -13 9 9 9 15 16 11 6 -1 -1 3 10 4 10 3 18 21 17 17 7 12 8 9 16 22 18 12 12 8 8 9 11 11 13 12 10 9 9 7 6 6 8 8 9 12 13 11 13 11 10 12
19 -4 -13 29 18 -11 10 5 8 31 21 24 18 20 19 0 1 12 9 12 9 17 11 11 17 8 16 14 17 15 12 11 9 11 11 12 13 11 11 8 8 7 6 8 9 10 12 13 11 12 10 12 15 14
13 -1 -5 19 15 17 21 7 9 -1 -2 5 9 4 -5 2 1 8 14 14 13 12 9 10 8 11 19 19 20 15 14 12 12 13 13 12 14 11 11 9 7 6 8 9 10 11 12 11 11 11 13 15 14 15
-13 -3 -8 -25 2 34 20 7 4 6 11 13 8 13 15 10 5 4 11 11 10 13 11 10 12 9 21 19 15 14 11 11 13 13 12 15 11 10 9 8 7 8 8 10 12 11 11 10 12 13 16 14 16 12
26 26 13 10 -1 -0 -10 43 8 6 12 15 17 15 16 15 11 13 16 13 16 14 7 15 15 13 19 21 16 11 9 9 12 14 14 11 10 9 8 7 7 8 10 12 11 11 11 13 14 16 15 16 11 11
0 -8 9 28 20 31 33 35 29 16 14 20 15 11 20 17 10 11 19 14 14 18 13 9 12 14 18 18 18 16 15 12 17 16 11 10 9 8 6 7 8 10 11 10 11 11 13 15 16 15 16 12 10 12
19 20 27 15 15 12 12 14 18 17 18 20 14 16 15 11 12 10 11 12 13 13 9 12 14 16 19 22 18 14 13 17 15 10 10 10 8 7 7 9 11 11 11 11 11 14 16 16 14 16 13 10 11 12
Height
2871 2875 2880 2884 2890 2896 2902 2908 2916 2924 2932 2940 2948 2956 2962 2968 2973 2978 2983 2987 2991 2994 2998 3001 3004 3006 3008 3008 3009 3010 3010 3008 3008 3009 3008 3008 3008 3009 3008 3007 3005 3001 3000 3000 2999 3000 3005 3001 3003 3005 3007 3006 3006 3006
2873 2878 2882 2887 2893 2898 2904 2911 2919 2927 2934 2941 2948 2956 2962 2967 2972 2977 2982 2985 2989 2993 2997 2999 3001 3004 3005 3006 3007 3007 3008 3007 3007 3008 3008 3007 3008 3008 3008 3006 3005 3005 3004 3002 3002 3004 3004 3004 3003 3004 3005 3006 3006 3006
2877 2880 2884 2889 2895 2901 2907 2914 2920 2927 2934 2941 2948 2956 2962 2966 2972 2977 2981 2984 2987 2991 2995 2997 2999 3002 3003 3005 3006 3008 3007 3007 3007 3007 3007 3007 3008 3008 3007 3008 3007 3006 3004 3004 3004 3005 3004 3006 3007 3007 3008 3008 3007 3007
2880 2883 2888 2893 2898 2904 2910 2916 2922 2929 2936 2943 2949 2957 2962 2966 2971 2975 2979 2982 2986 2989 2992 2996 2998 3000 3003 3004 3005 3006 3006 3007 3007 3007 3007 3007 3009 3009 3008 3008 3008 3007 3006 3005 3005 3005 3006 3007 3008 3008 3008 3008 3008 3007
2883 2887 2891 2896 2901 2907 2912 2918 2925 2931 2938 2945 2951 2956 2961 2966 2970 2974 2978 2981 2984 2990 2990 2994 2997 3000 3002 3003 3005 3005 3006 3006 3006 3006 3007 3008 3008 3009 3008 3007 3007 3006 3006 3006 3006 3006 3006 3008 3009 3009 3008 3009 3008 3007
2887 2892 2895 2899 2904 2910 2915 2921 2927 2934 2939 2945 2951 2955 2960 2965 2970 2974 2978 2981 2983 2987 2990 2993 2997 2999 3001 3002 3004 3004 3004 3005 3005 3006 3006 3007 3008 3009 3008 3007 3007 3006 3006 3007 3007 3007 3007 3008 3009 3009 3009 3008 3008 3006
2890 2896 2900 2905 2909 2914 2919 2924 2929 2935 2940 2946 2951 2956 2961 2965 2969 2974 2978 2980 2983 2986 2990 2994 2997 2999 3000 3001 3002 3003 3002 3002 3003 3004 3005 3006 3007 3007 3007 3007 3007 3007 3007 3007 3007 3008 3009 3009 3009 3008 3008 3007 3007 3006
2893 2899 2904 2909 2913 2917 2922 2927 2932 2937 2941 2946 2952 2957 2961 2966 2970 2974 2977 2979 2983 2987 2991 2993 2996 2998 2999 3000 3001 3001 3001 3001 3002 3003 3004 3004 3006 3006 3006 3006 3006 3006 3006 3007 3007 3008 3008 3008 3007 3006 3006 3005 3004 3003
2897 2902 2907 2912 2916 2921 2925 2929 2934 2938 2943 2948 2953 2957 2962 2967 2971 2974 2977 2980 2983 2989 2990 2992 2994 2996 2998 2999 3000 3001 3001 3002 3002 3002 3003 3004 3004 3004 3004 3005 3005 3005 3006 3006 3007 3006 3006 3005 3005 3005 3004 3003 3002 3000
2900 2905 2911 2915 2919 2924 2928 2932 2936 2940 2945 2949 2955 2959 2963 2967 2972 2975 2979 2982 2984 2987 2989 2991 2993 2995 2998 2998 3000 3001 3001 3001 3002 3003 3002 3002 3002 3002 3002 3004 3004 3005 3004 3004 3004 3004 3003 3003 3003 3002 3002 3001 3000 2998
2903 2907 2912 2917 2921 2926 2930 2935 2938 2942 2946 2950 2954 2959 2964 2969 2973 2977 2980 2982 2984 2987 2989 2991 2994 2995 2997 2999 3000 3001 3001 3001 3001 3003 3002 3001 3000 3000 3001 3002 3002 3002 3002 3002 3002 3003 3003 3002 3002 3001 3000 2999 2998 2997
2904 2909 2914 2919 2924 2928 2933 2937 2940 2945 2948 2952 2957 2962 2966 2971 2975 2977 2979 2982 2983 2985 2987 2990 2992 2994 2996 2998 3000 3001 3001 3001 3001 3001 3001 2999 2998 2998 2999 3000 3000 3000 3000 3001 3001 3001 3001 3000 3000 2999 2998 2997 2995 2993
2906 2911 2916 2921 2926 2931 2934 2938 2942 2947 2951 2955 2960 2964 2968 2972 2972 2974 2976 2979 2981 2982 2985 2988 2991 2993 2995 2998 2999 3000 3000 3001 3001 3000 2998 2996 2997 2997 2998 2998 2999 2999 3000 3000 3000 3000 3000 2999 2999 2997 2996 2994 2992 2991
2908 2914 2919 2924 2928 2932 2936 2939 2943 2948 2953 2957 2959 2963 2967 2969 2971 2972 2976 2979 2981 2983 2985 2987 2989 2992 2994 2996 2998 2998 2999 2999 2998 2997 2995 2995 2996 2997 2997 2997 2998 2999 2999 2999 2999 2999 2998 2997 2996 2995 2994 2992 2990 2988
2911 2916 2921 2926 2929 2933 2937 2940 2945 2950 2954 2958 2961 2964 2966 2967 2969 2972 2975 2978 2981 2983 2985 2987 2990 2992 2994 2995 2996 2997 2997 2996 2995 2994 2994 2995 2996 2996 2996 2996 2996 2997 2997 2997 2997 2997 2996 2996 2995 2994 2992 2989 2986 2983
2913 2917 2923 2927 2931 2935 2938 2942 2946 2951 2955 2959 2961 2963 2965 2966 2969 2972 2974 2977 2980 2982 2985 2988 2989 2991 2992 2993 2993 2993 2994 2992 2993 2993 2994 2994 2994 2995 2994 2995 2995 2996 2996 2996 2996 2995 2994 2993 2992 2990 2987 2985 2982 2979
2913 2918 2923 2928 2933 2937 2940 2945 2949 2953 2957 2959 2961 2962 2964 2967 2969 2971 2974 2977 2979 2982 2985 2987 2988 2989 2990 2990 2991 2991 2991 2991 2991 2992 2993 2993 2993 2993 2993 2993 2994 2994 2994 2994 2994 2993 2992 2990 2988 2986 2983 2980 2977 2973
2917 2922 2926 2930 2934 2938 2942 2946 2950 2953 2956 2959 2962 2963 2964 2966 2969 2971 2974 2977 2980 2981 2984 2986 2987 2987 2988 2988 2988 2989 2989 2990 2991 2991 2992 2992 2991 2991 2991 2992 2993 2993 2993 2992 2992 2991 2989 2987 2984 2982 2979 2976 2972 2968
2918 2924 2930 2935 2939 2943 2946 2948 2951 2953 2956 2959 2962 2963 2965 2966 2968 2971 2973 2976 2978 2981 2984 2985 2986 2985 2986 2987 2988 2988 2989 2989 2990 2990 2990 2989 2989 2989 2989 2990 2991 2991 2990 2989 2989 2988 2986 2984 2981 2977 2974 2970 2966 2962
2925 2930 2933 2937 2941 2944 2947 2949 2951 2954 2956 2959 2961 2964 2966 2967 2968 2970 2972 2975 2977 2980 2982 2982 2984 2985 2985 2986 2986 2987 2987 2988 2988 2988 2987 2987 2986 2987 2987 2988 2988 2988 2987 2986 2985 2984 2981 2979 2976 2973 2969 2965 2960 2955
2926 2931 2935 2939 2942 2946 2948 2948 2951 2954 2955 2957 2961 2964 2966 2966 2967 2969 2971 2974 2976 2977 2978 2980 2983 2984 2984 2984 2984 2985 2985 2986 2986 2986 2985 2984 2984 2985 2985 2985 2985 2985 2984 2983 2982 2980 2977 2974 2971 2968 2963 2958 2953 2949
2926 2931 2936 2940 2943 2946 2948 2949 2952 2953 2956 2956 2960 2964 2964 2965 2967 2969 2971 2973 2974 2976 2978 2979 2980 2981 2981 2981 2982 2982 2983 2983 2983 2982 2982 2982 2982 2982 2982 2982 2982 2981 2980 2979 2977 2975 2972 2969 2965 2960 2956 2951 2947 2941
2932 2935 2938 2941 2945 2946 2948 2948 2951 2953 2954 2955 2959 2962 2963 2965 2967 2969 2971 2972 2973 2975 2976 2976 2977 2978 2978 2979 2979 2979 2979 2979 2979 2979 2979 2979 2979 2979 2978 2978 2978 2978 2976 2974 2972 2969 2966 2962 2958 2954 2949 2944 2939 2934
2935 2938 2940 2943 2943 2945 2945 2947 2949 2951 2953 2956 2958 2960 2962 2964 2967 2968 2969 2970 2972 2971 2971 2972 2974 2975 2976 2976 2976 2976 2976 2975 2975 2975 2975 2975 2975 2974 2974 2974 2973 2973 2972 2970 2967 2964 2960 2956 2952 2947 2943 2938 2933 2928
2937 2941 2943 2942 2942 2944 2944 2946 2948 2951 2953 2956 2958 2960 2961 2963 2965 2966 2967 2968 2969 2968 2968 2969 2970 2971 2972 2972 2972 2972 2971 2972 2972 2972 2971 2971 2970 2970 2970 2969 2968 2968 2966 2964 2961 2958 2954 2950 2945 2941 2936 2931 2926 2921
2937 2938 2940 2940 2941 2943 2944 2945 2947 2950 2952 2954 2956 2958 2960 2961 2962 2962 2962 2964 2965 2965 2965 2965 2966 2966 2966 2967 2968 2967 2967 2967 2967 2967 2967 2966 2966 2965 2965 2965 2964 2963 2960 2958 2955 2952 2948 2943 2939 2934 2929 2924 2919 2914
2935 2936 2937 2938 2940 2941 2943 2945 2947 2948 2950 2952 2953 2955 2957 2958 2956 2957 2958 2959 2960 2961 2961 2961 2961 2961 2961 2961 2961 2962 2962 2962 2962 2962 2962 2961 2961 2961 2961 2960 2959 2957 2955 2952 2949 2946 2942 2937 2933 2927 2922 2917 2912 2907
2932 2933 2935 2938 2939 2940 2941 2943 2944 2946 2947 2948 2949 2951 2952 2952 2952 2954 2955 2955 2955 2955 2955 2956 2956 2956 2956 2955 2955 2956 2956 2956 2957 2957 2957 2957 2957 2957 2956 2956 2954 2953 2951 2947 2944 2939 2935 2931 2926 2921 2916 2911 2905 2900
2929 2931 2932 2933 2935 2936 2937 2938 2939 2941 2942 2943 2944 2946 2946 2947 2949 2950 2950 2951 2951 2951 2951 2951 2950 2950 2950 2949 2950 2950 2951 2951 2951 2951 2952 2952 2952 2953 2952 2951 2950 2948 2945 2941 2937 2933 2929 2924 2920 2915 2910 2905 2900 2894
2926 2928 2929 2930 2931 2931 2933 2933 2935 2936 2938 2940 2940 2941 2942 2942 2943 2944 2944 2945 2945 2945 2945 2945 2944 2944 2944 2944 2944 2945 2945 2946 2946 2947 2947 2947 2948 2948 2948 2946 2945 2942 2939 2935 2931 2927 2923 2919 2914 2908 2903 2898 2893 2888
2922 2923 2923 2924 2924 2926 2928 2929 2929 2931 2932 2932 2933 2934 2934 2935 2936 2937 2937 2938 2938 2939 2940 2940 2940 2939 2939 2939 2940 2940 2941 2942 2942 2942 2943 2944 2944 2944 2943 2942 2940 2937 2933 2930 2926 2922 2917 2913 2908 2904 2899 2894 2889 2884
2917 2919 2919 2919 2920 2921 2921 2921 2923 2925 2926 2927 2927 2927 2927 2928 2929 2930 2930 2931 2932 2933 2934 2933 2933 2933 2934 2934 2935 2936 2937 2938 2939 2939 2940 2941 2941 2940 2939 2937 2935 2932 2928 2925 2921 2917 2913 2908 2904 2899 2894 2890 2885 2880
2913 2914 2915 2916 2916 2917 2918 2919 2919 2920 2920 2920 2920 2920 2921 2922 2922 2923 2925 2926 2927 2926 2927 2928 2928 2928 2928 2929 2931 2932 2934 2935 2936 2937 2938 2938 2938 2937 2935 2933 2930 2927 2924 2920 2916 2912 2908 2904 2899 2895 2890 2886 2881 2876